Weather in Kletnya

Russia / Bryansk Oblast     53°23′23″N   33°13′00″E
temp.,
°C
wind,
m/s
gust,
m/s
humid.,
%
clouds,
%
prec.,
mm/h
press.,
hPa
HPBL,
m
29 june, wed
wed2900:00+19e2689100 0.1 1019138
03:00+18ese279371 0.1 1020178
06:00+19ese3792100 0.3 1020258
09:00+20ese358299 0.7 1020356
12:00+24ese4457100 0.0 1019897
15:00+26se335127 0.0 10191562
18:00+24se2364100 0.1 1018838
21:00+19ese229069 1.6 101825
30 june, thu
thu3000:00+16ese249498 1.1 101982
03:00+14se24930 1.1 101976
06:00+14ese23900 0.0 101977
09:00+20e12610 0.0 1020488
12:00+23ne23450 0.0 10191393
15:00+24nne33460 0.0 10191677
18:00+24nne135027 0.0 10181356
21:00+19n377546 0.0 1019153
1 july, fri
fri100:00+15ne35734 0.0 102080
03:00+13ne22724 0.0 102022
06:00+14n24760 0.0 102190
09:00+21n35570 0.0 1021405
12:00+25nne36460 0.0 10201621
15:00+26nne46420 0.0 10202054
18:00+25nne35500 0.0 10201824
21:00+18ese26836 0.0 1021109
2 july, sat
sat200:00+14sse24822 0.0 102380
03:00+13ssw22860 0.0 102331
06:00+14sw23815 0.0 102488
09:00+20w12613 0.0 1023462
12:00+25nnw225362 0.0 10221255
15:00+27nne334798 0.0 10211818
18:00+26n235888 0.0 10201247
21:00+20nw228699 0.1 102126
3 july, sun
sun300:00+18nw229492 0.0 102030
03:00+17wnw229598 0.0 102032
06:00+18wnw259167 0.0 1020139
09:00+24wnw346533 0.0 1019526
12:00+27nw335093 0.1 10191649
15:00+28wnw334299 0.1 10182321
18:00+27w34538 0.0 1017910
21:00+21nw11797 0.0 101713